sat.trackr.live / text

‹ back to catalog

STARLINK-38005

NORAD 69677 · 2026-145A

PAYLOAD ACTIVE UNKNOWN

§ Identity

Operator
Country
US
Launch date
2026-06-25
Launch site
AFWTR
Launch vehicle
Mass (kg)
RCS (m²)

Purposes: comms

External: N2YO · Heavens-Above · Gunter

§ Orbital elements

Epoch: 2026-09-19T19:31:08.594688Z

Period
93.91 min
Inclination
97.2885°
Eccentricity
0.0002047
Mean motion
15.33454482 rev/d
Perigee alt
464.1 km
Apogee alt
466.9 km
Semi-major
6,843.7 km
B*
7.3535e-4
RAAN
109.4240°
Arg perigee
79.5952°
Mean anomaly
280.5521°
Rev number
1,343

§ Raw data

STARLINK-380051 69677U 26145A   26262.81329392  .00023747  00000+0  73535-3 0  99962 69677  97.2885 109.4240 0002047  79.5952 280.5521 15.33454482 13439

JSON: /api/v1/satellites/69677 · /tle

For live sub-satellite position, see the globe view (requires WebGL).

§ Visibility from observer

Set your observer location to see the next 7 days of passes ≥ 10°. The values pass through the URL so the page stays shareable.

No JS? Fill the form by hand. The geolocation button needs JavaScript.